カタログに戻る

STARLINK-30066

運用中通信VLEO
NORAD 56704·PAYLOAD·🇺🇸 United States

打ち上げ May 19, 2023 から Cape Canaveral Space Force Station

Loading…

次のパス (今後24時間)

TLE

最新Source: CelesTrak SupGP

元期: Sep 15, 2026, 03:11 UTC

1 56704C 23067S   26258.13312500 -.00004765  00000+0 -17251-3 0  2588
2 56704  43.0027 280.9840 0001586 273.2708 139.9388 15.27591385    18

AllMySatでSTARLINK-30066をリアルタイム追跡

Download on the App Store